Tracking 30417 objects as of 17-May-2025
HD Live streaming from Space Station
objects crossing your sky now

STARLINK-5352


10-day predictions
STARLINK-5352 is classified as:


NORAD ID: 56426
Int'l Code: 2023-061BE
Perigee: 565.4 km
Apogee: 567.0 km
Inclination: 43.0 °
Period: 95.8 minutes
Semi major axis: 6937 km
RCS: Unknown
Launch date: May 4, 2023
Source: United States (US)
Launch site: AIR FORCE EASTERN TEST RANGE (AFETR)
Your satellite tracking list
Your tracking list is empty




NASA's NSSDC Master Catalog

Two Line Element Set (TLE):
1 56426U 23061BE  25135.97549318  .00000193  00000-0  29396-4 0  9993
2 56426  43.0055 349.7437 0001151 265.6120  94.4591 15.02537090112265
Source of the keplerian elements: AFSPC